星链-5732 (STARLINK-5732 )

导读

STARLINK-5732是美国SpaceX星链互联网卫星星座的一员,于2023年2月12日发射入轨。星链计划旨在搭建全球卫星互联网,为偏远地区、海洋等地面网络覆盖盲区提供高速互联网接入服务。该卫星承担低轨通信任务,参与星座组网,助力SpaceX实现全球覆盖的通信网络布局。

Basic Information
目录编号:
55572
目录名称:
STARLINK-5732
国际标识:
2023-020D
轨道中心:
EARTH
卫星名称:
星链-5732
卫星全名:
星链-5732 (STARLINK-5732 )
卫星状态:
在轨 (已飞行1219 天)
发射日期:
2023-02-12 UTC
国别 :
美国 (US)
星等 :
--
Orbit Information
数据来源 国际轨道数据 AOE轨道数据
星历时间 2026-06-15T01:24:21+0800
10小时前
查看轨道信息
2026-06-10T06:00:00+0800
5天前
查看轨道信息
半长轴 6861.212km 6861.162km
偏心率 0.0001023 0.0000035
轨道倾角 42.999° 42.995°
近地点辐角 267.281° 119.384°
升交点赤经 180.563° 207.725°
平近点角 92.793° 45.967°
近地点 482.373km 483km
远地点 483.777km 483.05km
周期 94.267分钟 94.266分钟
每日圈数 15.275714 15.275883
Detailed Information
固有亮度:
5
最大亮度:
2.5
卫星平台:
Starlink v1.5
覆盖范围:
全球
运营商:
太空探索技术公司
运营商所在国:
美国
制造商(研发单位):
太空探索技术公司
制造商所在国:
美国
使用方式:
暂无
Satellite Introduction
星链(Starlink)计划是由太空探索技术公司(SpaceX)提出的一个巨型低轨卫星互联网星座项目,计划在2019年至2024年间在太空搭建由约1.2万颗卫星组成的“星链”网络,其中1584颗将部署在地球上空550千米处的近地轨道,并从2020年开始工作。该卫星仍在工作。
2D Orbit Map
3D Orbit Map
Orbit Altitude Analysis Chart
Orbit Inclination Analysis Chart
Orbit Comprehensive Analysis Chart
View Comprehensive Chart